Weather in Tianeti

Georgia     42°06′42″N   44°58′04″E
В апреле 2022 года жителям России запретили посещать сайт meteo.paraplan.net по решению Генеральной прокуратуры. Аудитория сайта уменьшилась в 10 раз. Владельцы сайта не видят смысла в поддержке погодного сервера в таких условиях. Сайт будет закрыт в октябре.
temp.,
°C
wind,
m/s
gust,
m/s
humid.,
%
clouds,
%
prec.,
mm/h
press.,
hPa
HPBL,
m
3 october, mon
mon301:00+13ne1161100 0.0 101331
04:00+12e1169100 0.0 101211
07:00+11wsw0076100 0.0 101211
10:00+17w2351100 0.0 1011666
13:00+21w6745100 0.0 10111284
16:00+19wsw69535 0.0 1011733
19:00+12sw228994 0.1 101441
22:00+12sw0091100 0.4 101521
4 october, tue
tue401:00+13ene218598 0.4 101531
04:00+11ne23938 0.4 101757
07:00+11ne119395 0.0 101820
10:00+14ene1288100 0.2 1018194
13:00+15nne128396 0.1 1018396
16:00+20ene12566 0.1 1016915
19:00+15ese11755 0.0 101711
22:00+13e11825 0.0 101910
5 october, wed
wed501:00+13ene118482 0.0 102013
04:00+12ene11845 0.0 102113
07:00+11ene11855 0.0 102113
10:00+21e11505 0.0 1019593
13:00+26wsw13315 0.0 10181807
16:00+26ese12305 0.0 10161892
19:00+17wsw1167100 0.9 101811
22:00+13wsw2286100 1.4 102123
6 october, thu
thu601:00+12w2398100 2.3 102287
04:00+13wsw2298100 5.5 1022189
07:00+13w2398100 2.4 1023181
10:00+15wnw228674 3.9 1022362
13:00+18wnw1167100 0.3 1021837
16:00+17w117183 0.5 1019410
19:00+15wsw227999 0.2 102144
22:00+13w1188100 1.3 102385
7 october, fri
fri701:00+12w1192100 0.4 102340
04:00+12ne1297100 1.7 1023179
07:00+12ne2397100 1.6 1023225
10:00+11ne2396100 1.9 1024381
13:00+12ne2395100 0.3 1024529
16:00+12ne1293100 0.4 1023297
19:00+12ene119362 0.1 102428
22:00+12ene1292100 0.2 102450